Weather History for KHBR - September, 2013

Change the Weather History Date:

Friday, September 27, 2013

  Actual Average Record
Temperature  
Mean Temperature 79 °F -  
Max Temperature 91 °F 80 °F 96 °F (1998)
Min Temperature 68 °F 55 °F 44 °F (2010)
Cooling Degree Days 14    
Growing Degree Days 29 (Base 50)    
Moisture  
Dew Point 62 °F    
Average Humidity 57    
Maximum Humidity 73    
Minimum Humidity 42    
Precipitation  
Precipitation 0.00 in - - ()
Sea Level Pressure  
Sea Level Pressure 29.80 in    
Wind  
Wind Speed 17 mph (South)    
Max Wind Speed 29 mph    
Max Gust Speed 37 mph    
Visibility 10 miles    
Events Rain    
Averages and records for this station are not official NWS values.
T = Trace of Precipitation, MM = Missing Value Source: NWS Daily Summary

Daily Weather History Graph

Daily Weather History Graph

Search for Another Location

Airport or City:

Trip Planner

Search our weather history database for the weather conditions in past years. The results will help you decide how hot, cold, wet, or windy it might be!

Date:

Astronomy

Sep. 27, 2013 Rise Set
Actual Time 7:28 AM CDT 7:25 PM CDT
Civil Twilight 7:02 AM CDT 7:50 PM CDT
Nautical Twilight 6:33 AM CDT 8:19 PM CDT
Astronomical Twilight 6:03 AM CDT 8:49 PM CDT
Moon 12:37 AM CDT (9/27) 2:52 PM CDT (9/27)
Length of Visible Light 12h 47m
Length of Day
11h 57m
Last Quarter, 45% of the Moon is Illuminated
Sep 27
Last Quarter
Oct 4
New
Oct 11
First Quarter
Oct 18
Full
Oct 26
Last Quarter

Hourly Weather History & Observations

Time (CDT) Temp. Heat Index Dew Point Humidity Pressure Visibility Wind Dir Wind Speed Gust Speed Precip Events Conditions
12:53 AM 73.9 °F - 53.1 °F 48% 29.81 in 10.0 mi South 15.0 mph - N/A   Clear
1:53 AM 73.0 °F - 52.0 °F 48% 29.81 in 10.0 mi South 13.8 mph - N/A   Clear
2:53 AM 72.0 °F - 52.0 °F 49% 29.81 in 10.0 mi South 13.8 mph - N/A   Clear
3:53 AM 71.1 °F - 52.0 °F 51% 29.81 in 10.0 mi South 13.8 mph - N/A   Clear
4:53 AM 70.0 °F - 54.0 °F 57% 29.81 in 10.0 mi South 15.0 mph - N/A   Clear
5:53 AM 69.1 °F - 55.0 °F 61% 29.81 in 10.0 mi South 15.0 mph - N/A   Clear
6:53 AM 68.0 °F - 55.9 °F 65% 29.83 in 10.0 mi South 12.7 mph - N/A   Clear
7:53 AM 68.0 °F - 59.0 °F 73% 29.85 in 10.0 mi South 9.2 mph - N/A   Clear
8:53 AM 71.1 °F - 62.1 °F 73% 29.85 in 10.0 mi South 12.7 mph - N/A   Clear
9:53 AM 77.0 °F - 66.0 °F 69% 29.85 in 10.0 mi South 20.7 mph - N/A   Clear
10:53 AM 81.0 °F 83.3 °F 66.9 °F 62% 29.85 in 10.0 mi South 19.6 mph 25.3 mph N/A   Clear
11:41 AM 82.4 °F 85.4 °F 68.0 °F 62% 29.89 in 10.0 mi South 19.6 mph 28.8 mph N/A   Mostly Cloudy
11:53 AM 82.0 °F 84.5 °F 66.9 °F 60% 29.84 in 10.0 mi South 17.3 mph 26.5 mph N/A   Overcast
12:08 PM 84.2 °F 86.6 °F 66.2 °F 55% 29.89 in 10.0 mi South 24.2 mph 29.9 mph N/A   Mostly Cloudy
12:53 PM 84.9 °F 87.6 °F 66.9 °F 55% 29.81 in 10.0 mi South 20.7 mph 27.6 mph 0.00 in   Scattered Clouds
1:53 PM 88.0 °F 89.6 °F 64.9 °F 46% 29.78 in 10.0 mi South 21.9 mph 31.1 mph 0.00 in Rain Light Rain
2:53 PM 90.0 °F 91.3 °F 64.0 °F 42% 29.75 in 10.0 mi South 24.2 mph 34.5 mph 0.00 in Rain Light Rain
3:53 PM 89.1 °F 90.3 °F 64.0 °F 43% 29.74 in 10.0 mi SSE 24.2 mph 33.4 mph 0.00 in Rain Light Rain
4:53 PM 89.1 °F 90.3 °F 64.0 °F 43% 29.73 in 10.0 mi South 26.5 mph 33.4 mph 0.00 in Rain Light Rain
5:53 PM 87.1 °F 88.3 °F 64.0 °F 46% 29.73 in 10.0 mi South 23.0 mph 32.2 mph 0.00 in   Scattered Clouds
6:53 PM 84.9 °F 86.6 °F 64.9 °F 51% 29.72 in 10.0 mi SSE 20.7 mph - N/A   Clear
7:53 PM 82.0 °F 83.8 °F 64.9 °F 56% 29.72 in 10.0 mi SSE 20.7 mph - N/A   Clear
8:53 PM 82.0 °F 84.1 °F 66.0 °F 58% 29.74 in 10.0 mi SSE 20.7 mph - N/A   Partly Cloudy
9:53 PM 80.1 °F 82.7 °F 68.0 °F 67% 29.75 in 10.0 mi South 25.3 mph 32.2 mph N/A   Clear
10:53 PM 79.0 °F - 68.0 °F 69% 29.75 in 10.0 mi SSE 28.8 mph 36.8 mph N/A   Clear
11:53 PM 78.1 °F - 68.0 °F 71% 29.77 in 10.0 mi South 25.3 mph 33.4 mph N/A   Clear